CW9197 Weather Reports


time (UTC)temp
F
wind
direction
speed
knots
gust
knots
rain 1hr
in
rain 24hr
in
rain mn
in
humidity
%
barometer
mb
20260503211505 40 54 0.9 1.7 0.00 0.00 0.00 87 1008.0
20260503210504 40 54 0.9 1.7 0.00 0.00 0.00 83 1008.0
20260503205504 39 356 0.9 1.7 0.00 0.00 0.00 85 1008.0
20260503204503 40 296 0.9 1.7 0.00 0.00 0.00 83 1008.0
20260503203503 42 298 0.9 1.7 0.00 0.00 0.00 84 1008.0
20260503202544 41 243 0.9 0.9 0.00 0.00 0.00 85 1008.0
20260503201504 42 244 0.9 1.7 0.00 0.00 0.00 83 1008.0
20260503200503 43 244 0.9 1.7 0.00 0.00 0.00 78 1008.0
20260503195503 43 243 0.9 0.9 0.00 0.00 0.00 74 1008.0
20260503194505 44 243 0.9 0.9 0.00 0.00 0.00 72 1008.0
20260503193504 44 243 0.9 1.7 0.00 0.00 0.00 72 1007.9
20260503192505 45 243 0.9 1.7 0.00 0.00 0.00 70 1007.9
20260503191526 45 243 0.9 0.9 0.00 0.00 0.00 68 1008.0
20260503190503 46 243 0.9 1.7 0.00 0.00 0.00 67 1007.9
20260503185503 47 301 0.9 0.9 0.00 0.00 0.00 64 1007.9
20260503184504 47 301 0.9 0.9 0.00 0.00 0.00 64 1007.8
20260503183504 47 301 0.9 0.9 0.00 0.00 0.00 63 1007.8
20260503182524 48 301 0.9 0.9 0.00 0.00 0.00 62 1007.8
20260503181505 48 237 0.9 0.9 0.00 0.00 0.00 62 1007.7
20260503180505 49 236 0.9 0.9 0.00 0.00 0.00 62 1007.6
20260503175505 50 247 0.9 2.6 0.00 0.00 0.00 60 1007.6
20260503174504 51 283 1.7 2.6 0.00 0.00 0.00 58 1007.5
20260503173523 51 281 1.7 5.2 0.00 0.00 0.00 63 1007.4
20260503172523 52 220 0.9 1.7 0.00 0.00 0.00 61 1007.3
20260503171504 52 212 0.9 1.7 0.00 0.00 0.00 63 1007.3
20260503170504 53 212 1.7 2.6 0.00 0.00 0.00 66 1007.3
20260503150505 53 279 3.5 6.1 0.00 0.00 0.00 62 1007.5
20260503130504 56 214 2.6 4.3 0.00 0.00 0.00 63 1007.5
20260503110505 55 245 2.6 6.1 0.00 0.00 0.00 63 1007.1
20260503081503 50 323 2.6 5.2 0.00 0.00 0.00 87 1006.3
20260503080503 49 355 1.7 2.6 0.00 0.00 0.00 87 1006.2
20260503072504 49 346 1.7 2.6 0.00 0.00 0.00 90 1006.0
20260503071503 49 279 1.7 2.6 0.00 0.00 0.00 91 1006.0
20260503070525 48 270 1.7 3.5 0.00 0.00 0.00 90 1005.9
20260503054503 48 345 0.9 1.7 0.00 0.00 0.00 84 1005.3
20260503053503 48 46 0.9 1.7 0.00 0.00 0.00 86 1005.2
20260503052505 48 46 1.7 3.5 0.00 0.00 0.00 86 1005.1
20260503051504 47 31 1.7 3.5 0.00 0.00 0.00 86 1005.1
20260503050504 47 9 1.7 5.2 0.00 0.00 0.00 87 1005.2
20260503045503 47 9 1.7 3.5 0.00 0.00 0.00 86 1005.3
20260503044503 47 6 1.7 4.3 0.00 0.00 0.00 86 1005.3
20260503043504 47 1 1.7 4.3 0.00 0.00 0.00 87 1005.3
20260503042504 47 319 1.7 4.3 0.00 0.00 0.00 87 1005.4
20260503041504 47 328 1.7 4.3 0.00 0.00 0.00 86 1005.3
20260503040525 47 296 0.9 1.7 0.00 0.00 0.00 87 1005.3
20260503035504 46 6 0.9 2.6 0.00 0.00 0.00 87 1005.3
20260503034503 46 16 1.7 2.6 0.00 0.00 0.00 84 1005.2
20260503033505 46 5 1.7 1.7 0.00 0.00 0.00 87 1005.3
20260503032524 46 321 0.9 3.5 0.00 0.00 0.00 83 1005.3
20260503031504 46 285 1.7 2.6 0.00 0.00 0.00 85 1005.2
20260503030503 47 250 0.9 0.9 0.00 0.00 0.00 82 1005.1
20260503025505 47 254 0.9 1.7 0.00 0.00 0.00 78 1005.2
20260503024504 47 278 1.7 2.6 0.00 0.00 0.00 78 1005.2
20260503023504 47 212 0.9 1.7 0.00 0.00 0.00 73 1005.2
20260503022503 48 212 0.9 1.7 0.00 0.00 0.00 73 1005.2
20260503021505 47 212 0.9 1.7 0.00 0.00 0.00 75 1005.1
20260503020504 47 212 1.7 1.7 0.00 0.00 0.00 74 1005.0
20260503015504 48 212 1.7 1.7 0.00 0.00 0.00 72 1004.9
20260503014503 48 212 0.9 1.7 0.00 0.00 0.00 71 1004.9
20260503013503 48 212 0.9 1.7 0.00 0.00 0.00 75 1004.9
20260503012504 49 217 1.7 1.7 0.00 0.00 0.00 73 1004.9
20260503011504 49 217 1.7 2.6 0.00 0.00 0.00 63 1004.9
20260503010504 49 217 0.9 1.7 0.00 0.00 0.00 62 1004.9
20260503005504 49 216 0.9 0.9 0.00 0.00 0.00 62 1004.9
20260503004503 49 215 0.9 0.9 0.00 0.00 0.00 62 1005.1
20260503003524 49 197 0.9 1.7 0.00 0.00 0.00 63 1005.1
20260503002504 49 221 1.7 2.6 0.00 0.00 0.00 64 1005.4
20260503001504 49 217 1.7 2.6 0.00 0.00 0.00 64 1005.4
20260503000503 49 232 1.7 2.6 0.00 0.00 0.00 64 1005.5
20260502235505 48 224 1.7 2.6 0.00 0.00 0.00 65 1005.6
20260502234504 48 221 1.7 3.5 0.00 0.00 0.00 66 1005.6
20260502233504 48 214 2.6 3.5 0.00 0.00 0.00 66 1005.6
20260502232524 49 215 1.7 2.6 0.00 0.00 0.00 67 1005.6
20260502231503 49 212 1.7 2.6 0.00 0.00 0.00 67 1005.6
20260502230505 50 202 1.7 2.6 0.00 0.00 0.00 65 1005.6
20260502225504 50 209 1.7 2.6 0.00 0.00 0.00 64 1005.4
20260502224504 50 207 0.9 1.7 0.00 0.00 0.00 65 1005.7
20260502223503 50 197 1.7 2.6 0.00 0.00 0.00 66 1005.7
20260502222503 50 200 1.7 2.6 0.00 0.00 0.00 66 1005.8
20260502221505 50 210 1.7 2.6 0.00 0.00 0.00 67 1005.7
20260502220504 50 208 1.7 2.6 0.00 0.00 0.00 67 1005.8
20260502215504 50 206 1.7 2.6 0.00 0.00 0.00 65 1005.7
20260502214504 50 217 0.9 1.7 0.00 0.00 0.00 66 1005.8
20260502213503 50 198 0.9 2.6 0.00 0.00 0.00 66 1005.8
20260502212506 51 193 1.7 2.6 0.00 0.00 0.00 66 1005.7